Tracking 35275 objects as of 8-Sep-2026
HD Live streaming from Space Station
objects crossing your sky now

STARLINK-11513

Track STARLINK-11513 now!
10-day predictions
STARLINK-11513 is classified as:


NORAD ID: 62589
Int'l Code: 2025-008C
Launch date: January 13, 2025
Source: United States (US)
Launch site: AIR FORCE EASTERN TEST RANGE (AFETR)
Your satellite tracking list
Your tracking list is empty




NASA's NSSDC Master Catalog

Two Line Element Set (TLE):
1 62589U 25008C   26250.02935884  .00131266  00000-0  10109-2 0  9991
2 62589  43.0016 113.1664 0002490 256.8965 103.1625 15.70826761 94637
Source of the keplerian elements: AFSPC